Weather History for Lawrence, MA

Change the Weather History Date:

Wednesday, March 26, 2014

  Actual Average Record
Temperature  
Mean Temperature 28 °F -  
Max Temperature 33 °F 49 °F 75 °F (1949)
Min Temperature 23 °F 30 °F 8 °F (1960)
Degree Days  
Heating Degree Days 36    
Moisture  
Dew Point 7 °F    
Average Humidity 40    
Maximum Humidity 56    
Minimum Humidity 24    
Precipitation  
Precipitation 0.00 in - - ()
Sea Level Pressure  
Sea Level Pressure 29.78 in    
Wind  
Wind Speed 15 mph (NNW)    
Max Wind Speed 28 mph    
Max Gust Speed 46 mph    
Visibility 10 miles    
Events      
Averages and records for this station are not official NWS values.
T = Trace of Precipitation, MM = Missing Value Source: NWS Daily Summary

Daily Weather History Graph

Daily Weather History Graph

Search for Another Location

Airport:

Trip Planner

Search our weather history database for the weather conditions in past years. The results will help you decide how hot, cold, wet, or windy it might be!

Date:

Astronomy

Mar. 26, 2014 Rise Set
Actual Time 6:37 AM EDT 7:03 PM EDT
Civil Twilight 6:09 AM EDT 7:32 PM EDT
Nautical Twilight 5:35 AM EDT 8:05 PM EDT
Astronomical Twilight 5:01 AM EDT 8:39 PM EDT
Moon 3:49 AM EDT 2:33 PM EDT
Length of Visible Light 13h 23m
Length of Day
12h 26m
Waning Crescent, 22% of the Moon is Illuminated
Mar 26
Waning Crescent
Mar 30
New
Apr 7
First Quarter
Apr 15
Full
Apr 22
Last Quarter

Hourly Weather History & Observations

Time (EDT) Temp. Windchill Dew Point Humidity Pressure Visibility Wind Dir Wind Speed Gust Speed Precip Events Conditions
12:54 AM 28.9 °F 21.1 °F 15.1 °F 56% 29.90 in 10.0 mi NNE 8.1 mph - N/A   Overcast
1:54 AM 30.0 °F 23.2 °F 15.1 °F 54% 29.88 in 10.0 mi NNE 6.9 mph - N/A   Overcast
2:54 AM 30.0 °F 23.2 °F 16.0 °F 56% 29.88 in 10.0 mi NNE 6.9 mph - N/A   Overcast
3:54 AM 30.0 °F 21.7 °F 15.1 °F 54% 29.86 in 10.0 mi NNE 9.2 mph - N/A   Overcast
4:54 AM 28.9 °F 18.6 °F 15.1 °F 56% 29.80 in 10.0 mi North 12.7 mph - N/A   Overcast
5:54 AM 28.9 °F 17.7 °F 15.1 °F 56% 29.77 in 10.0 mi North 15.0 mph 24.2 mph N/A   Overcast
6:54 AM 28.0 °F 14.9 °F 10.9 °F 49% 29.75 in 10.0 mi North 19.6 mph 28.8 mph N/A   Overcast
7:54 AM 28.0 °F 15.3 °F 8.1 °F 43% 29.74 in 10.0 mi North 18.4 mph 26.5 mph N/A   Overcast
8:54 AM 28.0 °F 16.5 °F 6.1 °F 39% 29.71 in 10.0 mi North 15.0 mph 26.5 mph N/A   Overcast
9:54 AM 28.9 °F 15.8 °F 5.0 °F 36% 29.72 in 10.0 mi North 20.7 mph 28.8 mph N/A   Overcast
10:54 AM 28.9 °F 15.1 °F 6.1 °F 38% 29.68 in 10.0 mi NNW 23.0 mph 38.0 mph N/A   Overcast
11:54 AM 30.9 °F 17.5 °F 6.1 °F 35% 29.64 in 10.0 mi NNW 24.2 mph 32.2 mph N/A   Overcast
12:54 PM 30.9 °F 16.7 °F 8.1 °F 38% 29.62 in 10.0 mi NW 27.6 mph 46.0 mph N/A   Overcast
1:54 PM 32.0 °F 18.1 °F 8.1 °F 37% 29.61 in 10.0 mi NNW 27.6 mph 43.7 mph N/A   Overcast
2:54 PM 32.0 °F 18.9 °F 1.9 °F 28% 29.61 in 10.0 mi NW 24.2 mph 39.1 mph N/A   Overcast
3:54 PM 33.1 °F 21.5 °F -0.0 °F 24% 29.63 in 10.0 mi NW 19.6 mph 44.9 mph N/A   Overcast
4:54 PM 33.1 °F 20.1 °F 1.9 °F 27% 29.67 in 10.0 mi WNW 25.3 mph 39.1 mph N/A   Overcast
5:54 PM 30.9 °F 16.9 °F 1.9 °F 29% 29.71 in 10.0 mi NW 26.5 mph 36.8 mph N/A   Clear
6:54 PM 30.0 °F 15.4 °F 3.0 °F 32% 29.77 in 10.0 mi NW 27.6 mph 46.0 mph N/A   Clear
7:54 PM 28.0 °F 13.9 °F 3.9 °F 36% 29.83 in 10.0 mi WNW 23.0 mph 36.8 mph N/A   Clear
8:54 PM 27.0 °F 14.3 °F 3.0 °F 36% 29.89 in 10.0 mi NW 17.3 mph 36.8 mph N/A   Clear
9:54 PM 25.0 °F 12.6 °F 1.0 °F 36% 29.95 in 10.0 mi NW 15.0 mph 38.0 mph N/A   Clear
10:54 PM 24.1 °F 9.0 °F -2.0 °F 32% 29.98 in 10.0 mi WNW 21.9 mph 38.0 mph N/A   Clear
11:54 PM 23.0 °F 8.3 °F -2.9 °F 32% 30.02 in 10.0 mi NW 19.6 mph 33.4 mph N/A   Clear